Location: K�ln
(50.9455°N, 6.9544°E)
Time: 07:08:26
(UTC+01:00)

ISS - Pass Details

Date: 13 January 2018
Orbit: 402 x 407 km, 51.6° (Epoch: 18 January)

Event Time Altitude Azimuth Distance (km) Brightness Sun altitude
Exits shadow 07:06:34 14° 243° (WSW) 1,262 -1.7 -12.6°
Maximum altitude 07:07:42 16° 219° (SW) 1,165 -1.7 -12.5°
Drops below altitude 10° 07:09:46 10° 180° (S) 1,461 -0.8 -12.1°
Sets 07:12:24 0° 158° (SSE) 2,318 0.7 -11.8°
